COSMOS 2251 DEB, 34784

Orbit data source: Space-Track

COSMOS 2251 DEB, 34784 is space debris in LEO originally from a launch on Wed, 16 Jun 1993 UTC launched from the Plesetsk Missile And Space Complex (PKMTR). The debris from Iridium 33, an American commercial communications satellite, has been tracked extensively since its accidental collision with the defunct Russian satellite Cosmos 2251 in 2009. This event, occurring at high speed in low Earth orbit (LEO), generated thousands of pieces of space debris, significantly increasing the risk of further collisions. The Iridium 33 debris cloud has impacted space traffic management and orbital debris mitigation strategies, making it a subject of ongoing study in space situational awareness.

Loading next visibility...
Identifier
34784, 1993-036AAM
Orbit
LEO
Country
Flag of CISCIS
Related business
Manufacturer
Unknown
Mission
Spacecraft
Bus & Motor
Unknown
Mass
Unknown
Launch date (UTC)
1993-06-16 (33 years ago)
Launch vehicle
Unknown
Launch site
Plesetsk Missile And Space Complex (PKMTR)
Object type
Payload
Rocket body
Debris
Shape & HBR
Unknown shape, 0.1 m
Radar Cross Section
Small (<0.1 m²)

Expand to show TLE details & history
Last TLE update: 13 hours ago

TLE from 13 hours ago
0 COSMOS 2251 DEB
1 34784U 93036AAM 26145.04217183  .00001506  00000-0  30425-3 0  9990
2 34784  74.0067  11.5707 0050590 140.1382 220.3518 14.61525909909204
Epoch: 2026-05-25T01:00Z
TLE epoch observation values (Epoch: 2026-05-25T01:00:43.646Z)
Latitude
-0.00001°
Longitude
113.75319°
Altitude
718.215 km
Speed
7.482 km/s
True Right ascension
00h 46m 16s
True Declination
0° 00' 00"
Sunlit
Object was in daylight at epoch
Visualization orbit readout
Latitude
Unknown
Longitude
Unknown
Altitude
Unknown
Speed
Unknown
Apparent Right ascension
Unknown
Apparent Declination
Unknown
Sunlit
N/A
Visualization observer readout
Local Sidereal Time
23:15:50
Azimuth
Unknown
Elevation
Unknown
Doppler factor
Unknown
Orbital elements
Apogee altitude
721.586 km
Perigee altitude
650.113 km
Semi-major axis
7,063.987 km
Eccentricity
0.00506
Inclination
74.0067°
RAAN
11.5707°
Arg. of periapsis
140.1382°
True anomaly
219.97825°
Mean anomaly
220.3518°
Eccentric anomaly
220.16484°
Mean motion
3.65568 °/min
Orbital period
98.48 mins
BSTAR
0.00030425
Loading maneuver chart data...
Computing Atmospheric mass density...
Loading historical data...
Loading historical data...
Loading historical data...
Loading historical data...
Loading historical data...
Loading historical data...
Loading historical data...

Documentation

Showing up to 5 results
|